Weather History for KTQE - June, 2013

Change the Weather History Date:

Monday, June 17, 2013

  Actual Average Record
Temperature  
Mean Temperature 74 °F -  
Max Temperature 89 °F 84 °F 98 °F (1987)
Min Temperature 60 °F 60 °F 46 °F (1960)
Cooling Degree Days 10    
Growing Degree Days 24 (Base 50)    
Moisture  
Dew Point 57 °F    
Average Humidity 57    
Maximum Humidity 90    
Minimum Humidity 32    
Precipitation  
Precipitation 0.00 in - - ()
Sea Level Pressure  
Sea Level Pressure 29.96 in    
Wind  
Wind Speed 6 mph (NNW)    
Max Wind Speed 12 mph    
Max Gust Speed 17 mph    
Visibility 10 miles    
Events      
Averages and records for this station are not official NWS values.
T = Trace of Precipitation, MM = Missing Value Source: NWS Daily Summary

Daily Weather History Graph

Daily Weather History Graph

Search for Another Location

Airport or City:

Trip Planner

Search our weather history database for the weather conditions in past years. The results will help you decide how hot, cold, wet, or windy it might be!

Date:

Astronomy

Jun. 17, 2013 Rise Set
Actual Time 5:49 AM CDT 9:02 PM CDT
Civil Twilight 5:15 AM CDT 9:36 PM CDT
Nautical Twilight 4:31 AM CDT 10:20 PM CDT
Astronomical Twilight 3:38 AM CDT 11:13 PM CDT
Moon 2:37 PM CDT (6/17) 1:30 AM CDT (6/17)
Length of Visible Light 16h 21m
Length of Day
15h 12m
First Quarter, 60% of the Moon is Illuminated
Jun 17
First Quarter
Jun 23
Full
Jun 29
Last Quarter
Jul 8
New
Jul 15
First Quarter

Hourly Weather History & Observations

Time (CDT) Temp. Heat Index Dew Point Humidity Pressure Visibility Wind Dir Wind Speed Gust Speed Precip Events Conditions
12:54 AM 66.9 °F - 61.0 °F 81% 29.95 in 10.0 mi North 5.8 mph - N/A   Clear
1:54 AM 64.9 °F - 59.0 °F 81% 29.92 in 10.0 mi North 8.1 mph - N/A   Clear
2:54 AM 63.0 °F - 57.9 °F 84% 29.94 in 10.0 mi North 3.5 mph - N/A   Clear
3:54 AM 62.1 °F - 57.9 °F 86% 29.93 in 10.0 mi North 5.8 mph - N/A   Clear
4:54 AM 61.0 °F - 57.9 °F 90% 29.93 in 10.0 mi NW 5.8 mph - N/A   Clear
5:54 AM 60.1 °F - 57.0 °F 90% 29.96 in 10.0 mi WNW 3.5 mph - N/A   Clear
6:54 AM 62.1 °F - 57.9 °F 86% 29.98 in 10.0 mi North 4.6 mph - N/A   Clear
7:54 AM 71.1 °F - 59.0 °F 66% 29.98 in 10.0 mi Calm Calm - N/A   Clear
8:54 AM 75.0 °F - 57.9 °F 55% 30.00 in 10.0 mi NNW 5.8 mph - N/A   Clear
9:54 AM 77.0 °F - 57.9 °F 52% 29.99 in 10.0 mi North 4.6 mph - N/A   Clear
10:54 AM 80.1 °F 80.7 °F 59.0 °F 48% 29.99 in 10.0 mi NW 3.5 mph - N/A   Clear
11:54 AM 82.0 °F 81.6 °F 55.9 °F 41% 29.99 in 10.0 mi Calm Calm - N/A   Clear
12:54 PM 86.0 °F 85.4 °F 59.0 °F 40% 29.98 in 10.0 mi NNE 4.6 mph - N/A   Clear
1:54 PM 86.0 °F 84.9 °F 57.0 °F 37% 29.96 in 10.0 mi WNW 4.6 mph - N/A   Clear
2:54 PM 89.1 °F 87.7 °F 57.0 °F 34% 29.95 in 10.0 mi NW 11.5 mph - N/A   Partly Cloudy
3:54 PM 89.1 °F 88.0 °F 57.9 °F 35% 29.95 in 10.0 mi North 9.2 mph 17.3 mph N/A   Partly Cloudy
4:54 PM 88.0 °F 86.1 °F 55.0 °F 32% 29.94 in 10.0 mi NNW 10.4 mph - N/A   Clear
5:54 PM 87.1 °F 85.7 °F 55.9 °F 35% 29.92 in 10.0 mi North 10.4 mph - N/A   Clear
6:54 PM 86.0 °F 84.2 °F 54.0 °F 33% 29.93 in 10.0 mi North 10.4 mph - N/A   Clear
7:54 PM 82.9 °F 81.9 °F 54.0 °F 37% 29.93 in 10.0 mi NNW 8.1 mph - N/A   Clear
8:54 PM 79.0 °F - 55.0 °F 44% 29.94 in 10.0 mi NNW 10.4 mph - N/A   Clear
9:54 PM 72.0 °F - 55.9 °F 57% 29.96 in 10.0 mi NW 8.1 mph - N/A   Clear
10:54 PM 70.0 °F - 55.9 °F 61% 29.98 in 10.0 mi North 5.8 mph - N/A   Clear
11:54 PM 68.0 °F - 55.9 °F 65% 29.98 in 10.0 mi North 5.8 mph - N/A   Clear